Theta_e
301 297 296 300 298 303 301 299 298 296 296 295 297 297 299 303 300 302 304 305 309 315 320 323 326 329 330 332 333 333 333 334 333 331 329 328 328 331 332 333 331 332 334 334
295 295 303 303 299 298 296 295 294 297 296 296 297 296 299 299 300 302 303 304 305 308 316 320 323 325 326 328 330 333 333 334 333 333 332 332 332 334 335 334 333 331 333 332
296 299 299 297 295 294 294 296 295 296 294 295 296 298 301 304 301 300 301 303 305 306 308 314 319 323 326 326 327 330 333 334 334 335 334 332 334 333 333 333 334 334 334 334
298 297 297 297 295 297 293 296 295 293 294 292 294 290 299 303 304 301 300 302 302 303 304 308 313 317 322 326 329 329 331 333 334 335 333 330 328 327 331 333 335 335 332 333
294 293 295 295 296 299 296 296 295 293 292 290 291 289 295 298 298 301 303 303 303 305 303 304 306 310 315 320 325 328 329 330 332 333 334 332 331 333 333 333 335 335 335 334
291 297 298 297 297 300 296 293 293 293 291 286 292 289 292 296 297 300 303 304 304 304 304 304 306 306 307 310 314 321 324 327 330 332 333 332 331 332 332 332 331 333 332 330
289 292 294 297 293 294 296 292 285 284 284 284 285 287 293 298 298 298 298 302 303 304 304 304 302 300 302 304 306 309 315 320 326 329 331 332 332 332 331 331 332 332 331 330
287 283 291 294 296 291 291 293 288 281 281 286 283 285 292 296 297 296 301 300 298 298 300 300 301 302 303 304 305 306 308 313 321 326 328 330 329 330 331 331 331 331 332 331
288 284 290 293 294 294 290 288 293 283 277 282 286 289 294 296 296 296 296 297 299 300 299 300 301 301 300 303 304 306 307 309 314 320 322 324 325 326 327 329 330 329 330 326
291 283 288 289 293 292 293 295 286 288 281 279 284 284 289 294 294 296 297 298 299 299 299 300 301 302 302 304 306 308 308 308 309 310 314 318 317 322 325 325 324 322 322 321
292 288 284 289 288 290 290 289 290 292 287 283 282 288 294 294 293 294 297 298 298 298 299 300 301 302 303 306 308 308 308 306 307 308 309 309 309 309 320 323 323 321 318 316
291 287 282 285 288 290 294 291 291 287 282 287 283 287 293 294 294 295 296 297 298 298 299 300 301 301 302 305 307 308 308 307 307 308 309 309 311 311 314 317 315 311 308 308
290 286 281 282 286 288 288 288 293 288 288 283 285 289 294 292 294 296 296 298 298 298 299 300 301 301 302 304 305 306 306 306 304 304 305 305 307 308 307 305 304 303 302 299
294 287 286 281 285 288 284 287 292 290 286 286 288 291 291 292 293 295 297 297 298 298 299 300 300 301 302 302 304 305 303 302 301 302 302 301 301 304 302 299 298 297 297 296
293 285 286 285 287 289 288 286 288 289 290 286 289 289 293 296 296 298 300 298 297 297 298 299 300 301 302 301 302 303 302 301 301 300 299 298 295 296 296 294 293 293 291 291
290 285 285 281 286 287 285 288 288 289 290 290 290 290 296 297 298 297 297 296 296 298 298 299 300 300 300 300 301 301 300 299 299 299 298 294 292 292 291 290 290 289 288 289
288 284 285 283 284 286 283 286 287 288 291 291 287 291 295 294 294 295 296 296 296 297 298 298 299 300 300 300 300 299 299 297 297 296 293 292 291 289 289 288 287 287 287 289
286 286 286 280 280 278 288 292 292 290 291 292 292 293 295 296 297 298 298 298 298 297 298 298 300 301 301 301 300 299 297 295 294 292 291 289 289 288 287 287 287 286 287 287
292 289 281 281 282 285 285 286 287 287 288 293 292 294 294 295 293 295 298 297 298 299 299 300 301 301 301 299 299 296 293 292 292 290 289 288 288 286 286 286 286 285 285 285
288 292 288 278 281 278 286 289 291 293 285 292 293 293 293 294 288 295 294 294 294 294 295 297 298 298 298 298 295 293 291 290 290 289 288 288 287 286 286 285 285 284 286 285
283 285 283 282 283 286 289 288 293 285 288 293 292 294 294 291 295 293 292 291 291 291 292 293 294 294 294 291 292 291 289 289 288 287 286 286 286 286 286 285 284 284 284 283
283 283 282 281 282 279 288 287 288 293 290 291 291 292 292 292 291 290 290 289 289 289 288 288 289 288 288 289 290 288 288 286 286 286 285 284 285 284 284 284 283 284 283 282
283 288 285 286 287 290 289 292 293 293 294 292 294 293 292 291 291 290 289 288 286 286 285 285 287 285 285 287 288 287 285 285 284 285 284 284 284 284 284 284 282 282 283 282
285 287 288 288 288 289 289 290 291 292 293 292 293 292 291 291 290 287 287 286 285 284 284 283 285 285 283 285 285 287 284 284 284 284 283 282 283 282 282 283 283 283 282 282
288 287 284 285 286 289 290 291 292 289 289 288 288 289 291 290 287 287 285 284 284 283 282 283 283 283 282 283 283 283 283 283 284 283 282 282 283 282 281 281 282 282 283 283
287 286 288 288 291 292 292 293 290 289 289 289 288 286 286 288 287 286 284 283 283 282 281 282 281 282 281 281 281 281 282 283 283 281 280 281 280 280 280 279 278 280 281 281
Wind_Speed
6 11 19 20 14 6 7 10 12 4 1 4 11 16 14 12 10 11 12 12 13 16 13 14 15 16 16 15 16 16 15 15 12 10 9 8 9 9 9 9 11 9 11 12
7 16 15 12 11 9 9 10 6 3 1 3 8 17 14 14 13 16 14 13 14 13 13 13 15 16 17 17 17 17 18 17 14 11 10 8 9 9 10 9 11 11 11 11
16 9 16 13 9 11 5 12 7 4 1 2 9 21 23 17 14 14 15 14 12 15 16 15 16 18 16 18 18 18 19 18 17 16 10 8 6 4 7 8 8 10 11 12
7 10 17 16 17 16 13 6 6 4 4 8 2 9 15 9 17 17 16 17 18 16 15 15 16 17 17 19 16 18 18 19 17 17 13 15 11 10 10 10 10 10 11 12
10 17 20 20 20 16 8 10 8 5 7 5 8 9 9 7 13 18 19 19 18 17 15 16 17 17 17 15 16 15 16 17 17 16 16 13 15 11 10 10 11 12 11 11
4 4 12 10 12 17 17 12 9 4 3 9 14 11 7 11 13 14 16 17 19 17 17 14 12 14 14 11 13 14 16 17 17 17 18 19 18 14 11 11 9 8 8 8
7 7 3 10 17 9 14 18 5 5 6 7 1 9 14 15 13 8 13 12 13 15 15 15 13 11 11 14 14 13 17 18 17 18 18 19 18 16 16 13 10 10 8 7
17 9 13 6 19 12 11 15 6 9 6 2 2 12 5 6 9 10 12 13 8 9 9 11 11 11 12 12 13 14 14 17 17 17 18 15 16 10 11 12 10 8 8 8
15 5 4 7 6 15 12 12 6 6 2 2 6 7 12 12 17 7 10 10 12 10 7 9 7 8 9 10 12 12 13 14 15 16 13 13 11 12 11 13 10 7 8 4
11 9 4 5 6 1 12 13 6 4 5 6 6 7 10 11 6 6 6 7 8 8 10 11 8 5 5 6 8 9 10 10 9 10 10 10 9 8 9 8 9 8 6 7
10 5 7 8 9 16 10 12 4 4 5 3 4 6 5 6 2 3 8 9 9 10 9 6 4 4 5 5 7 7 7 7 9 8 8 8 8 9 10 10 9 9 9 10
3 7 8 15 3 3 13 14 16 7 5 6 2 11 5 6 5 4 5 6 8 8 6 4 3 4 5 6 6 7 6 7 6 7 7 6 6 7 9 8 7 7 9 7
9 5 9 5 4 1 14 5 17 3 2 8 7 10 4 6 5 3 4 4 5 4 3 4 5 6 6 5 5 5 5 4 4 5 7 7 6 7 6 6 7 7 9 8
9 5 9 14 11 15 16 22 23 17 7 7 18 20 5 7 7 6 6 3 4 4 5 6 7 8 8 8 8 7 6 5 5 4 4 5 6 7 7 8 8 8 8 8
7 6 4 3 6 12 21 20 20 25 28 17 25 23 21 19 17 19 13 9 6 6 8 9 10 10 9 9 7 6 6 6 7 7 6 6 5 7 7 7 7 9 7 7
3 4 5 3 2 6 5 18 24 29 25 23 23 28 8 11 16 17 16 11 11 10 8 10 12 12 11 10 9 8 8 7 7 8 8 7 6 6 6 7 7 8 8 7
12 7 7 6 2 6 2 27 26 24 25 30 21 33 4 9 10 12 12 11 13 10 8 10 12 12 11 12 12 12 9 8 8 7 7 8 6 6 6 7 8 8 8 8
13 11 4 4 3 8 11 6 22 24 17 24 25 21 9 14 15 15 12 11 9 10 11 9 9 10 11 11 12 10 9 8 7 6 6 6 7 7 6 7 7 7 6 7
8 7 5 7 10 5 6 7 11 16 20 20 23 19 14 13 6 20 15 12 15 10 6 5 7 8 10 13 13 12 11 9 8 8 8 7 7 8 8 7 7 6 7 7
3 12 5 6 9 12 4 16 12 7 13 9 18 19 18 9 9 13 4 4 3 4 3 3 1 3 6 7 9 10 10 10 10 9 8 8 8 8 9 9 8 4 5 5
10 10 19 6 9 6 6 8 8 9 4 2 8 13 11 10 8 3 1 4 3 4 5 5 2 2 3 7 8 8 9 10 7 7 8 8 8 8 7 8 4 6 6 6
13 14 10 4 8 16 7 7 17 7 2 5 6 6 8 4 4 3 4 4 4 3 5 5 3 4 3 5 6 6 7 5 7 8 8 7 7 6 6 9 6 6 7 7
7 9 10 15 8 1 9 2 2 4 7 6 5 5 6 8 7 6 5 3 3 3 3 3 3 4 4 3 5 6 5 7 7 8 7 7 7 7 7 9 8 7 7 7
5 5 5 5 6 6 10 4 3 4 4 5 3 5 7 8 8 5 4 4 3 3 3 2 3 4 4 2 2 3 6 6 7 7 8 7 7 7 6 5 6 6 7 7
4 12 7 1 1 2 4 10 7 5 4 5 5 2 6 9 6 5 5 4 4 4 2 3 4 3 3 2 3 3 5 7 7 7 6 7 6 7 7 5 6 6 5 7
6 8 10 7 11 6 7 14 10 10 7 7 6 4 4 5 8 5 5 3 3 4 2 3 3 3 3 3 3 3 3 5 7 7 6 6 6 6 6 6 4 6 5 10
Wind_Direction
176 179 200 188 200 249 204 206 223 191 160 229 241 259 243 235 235 239 233 225 220 231 219 214 209 208 211 212 211 207 199 203 194 198 200 203 214 211 214 214 212 215 212 209
151 215 197 171 166 148 169 186 201 201 233 264 266 270 266 256 246 247 241 230 228 222 220 209 212 208 210 213 214 211 207 203 196 195 204 208 204 220 217 215 212 207 214 207
176 170 157 160 158 152 168 201 172 233 359 239 297 279 263 243 243 244 248 244 238 232 218 216 206 214 212 217 211 213 212 207 202 203 201 206 214 217 210 217 219 216 208 211
210 154 168 177 186 187 197 183 173 187 275 259 333 281 265 256 240 228 233 234 227 224 223 224 210 208 213 224 219 217 214 213 207 201 201 196 203 206 214 214 214 212 207 214
166 167 176 182 187 186 200 158 174 146 211 271 224 268 262 267 254 240 234 231 229 219 214 213 215 213 204 207 217 222 219 218 210 203 205 207 217 217 217 221 217 215 214 216
111 155 175 170 159 183 136 123 95 108 188 256 245 225 235 244 257 248 246 239 234 229 223 235 209 199 213 200 200 207 215 219 216 210 209 213 215 213 214 210 215 210 212 208
134 154 141 158 139 156 167 158 149 204 208 246 73 221 255 282 252 251 272 268 245 244 232 228 210 206 211 199 197 199 206 216 211 213 215 218 222 219 219 214 213 212 211 210
169 186 179 168 173 167 175 177 173 192 200 215 100 237 239 279 279 281 267 264 270 266 249 246 248 236 222 209 209 201 202 209 204 207 212 215 221 221 221 218 217 218 219 222
170 136 143 174 149 148 176 207 117 102 32 246 216 264 263 259 281 237 264 285 269 255 253 256 254 253 251 237 214 212 204 201 204 203 203 207 206 210 214 216 209 209 218 205
160 118 211 143 122 68 202 141 169 202 203 238 228 270 246 279 352 343 293 284 273 258 248 231 230 240 239 230 213 200 199 202 189 194 204 206 201 204 201 195 187 188 178 167
148 102 154 164 205 182 157 184 188 174 203 234 291 257 217 239 226 299 305 320 322 312 297 279 251 208 185 192 184 183 186 172 168 172 176 194 204 216 221 212 193 177 166 158
134 107 144 180 42 278 193 191 183 188 179 245 346 262 173 186 199 239 281 295 316 315 319 303 206 196 201 196 183 188 192 171 171 160 169 191 191 197 201 194 171 147 142 142
164 116 109 170 215 287 208 192 198 143 136 196 183 257 142 197 210 228 277 345 330 287 237 186 184 200 203 204 198 197 194 184 156 166 157 155 173 181 164 138 135 122 127 124
123 151 160 184 186 155 191 198 199 195 208 182 223 241 192 202 220 252 305 259 281 256 240 220 209 206 207 201 195 195 185 167 155 162 159 160 154 162 152 140 126 120 126 131
143 146 111 55 149 163 187 187 188 203 223 208 242 240 242 254 288 292 288 294 280 242 219 219 219 212 206 204 204 193 190 177 168 162 167 162 142 130 137 121 116 122 108 117
191 149 127 125 136 161 144 190 196 209 220 234 244 260 251 260 244 262 278 280 267 263 248 231 221 212 206 199 199 194 189 187 180 171 168 149 141 128 122 120 115 115 113 122
171 137 144 190 140 124 270 210 198 211 212 219 226 241 188 239 250 251 261 246 251 255 242 234 226 217 202 196 188 192 187 171 179 174 159 157 142 132 131 126 127 131 137 137
165 148 99 129 144 212 252 181 197 209 211 221 238 247 230 240 243 253 242 244 248 237 248 232 221 218 199 189 183 169 164 174 169 161 161 152 143 136 136 137 137 131 137 139
174 147 127 155 208 277 208 178 160 185 234 216 230 244 232 252 276 268 252 231 246 262 267 263 229 213 187 185 180 167 156 162 173 177 171 168 153 145 145 147 145 133 135 133
162 195 181 159 199 226 239 171 164 141 266 181 208 227 225 205 228 253 28 18 34 13 356 334 228 178 185 179 164 160 163 165 181 175 171 166 155 159 158 150 147 132 126 123
164 183 210 198 223 255 244 136 143 173 246 204 183 209 205 198 225 68 91 51 6 9 355 353 37 127 143 142 151 159 158 186 159 144 151 160 154 157 147 130 116 135 128 127
165 170 195 193 226 248 172 130 172 165 128 173 194 189 189 166 138 112 82 60 37 22 12 19 70 69 85 122 138 147 179 129 137 149 151 151 140 136 134 137 129 125 133 140
186 189 165 194 201 159 192 87 198 160 163 198 183 159 165 157 172 160 138 129 86 58 50 23 92 91 44 98 132 149 154 149 145 148 146 146 139 146 152 146 145 149 158 160
231 194 178 151 176 175 183 187 219 196 159 155 167 157 161 157 146 137 139 131 103 61 60 37 73 86 90 69 94 118 142 130 142 145 151 144 151 154 152 146 158 166 175 176
174 150 154 128 106 79 227 222 169 131 117 122 95 110 143 137 141 143 132 123 105 98 69 51 74 78 88 97 93 116 139 147 150 147 149 160 166 170 170 169 178 187 198 197
193 157 179 205 180 172 197 191 162 156 161 148 126 119 85 123 137 129 122 109 114 111 108 97 77 104 118 114 110 120 147 154 150 153 167 180 172 172 176 178 175 211 221 209